Wind_Speed
53 51 47 45 44 43 41 40 38 37 36 35 34 34 35 35 34 34 35 37 37 36 34 32 31 29 28 27 25 23 22 19 17 15 12 10 8 7 6 5 5 6 7 8 10 11 12 13 14 15 17 18 19 20 21 22 23 23 23 24 24 25 27 29 35 44 46 41 42 41 40 41 40 39 41 42 41 40 39 38 38 37 37 39 39
54 51 48 47 46 45 43 41 40 39 37 37 36 36 36 36 35 36 37 38 38 36 35 33 31 30 29 27 26 24 22 20 17 15 13 11 9 8 7 6 6 6 7 9 10 11 13 14 15 16 17 18 19 20 21 21 22 23 23 24 26 25 26 29 33 41 47 46 44 43 42 43 42 41 42 44 44 44 43 41 40 39 38 38 39
53 51 50 49 47 46 44 42 41 40 39 38 38 37 37 37 37 37 38 39 38 37 36 34 32 31 29 28 26 24 22 20 18 16 14 12 10 9 8 7 7 7 8 9 10 12 13 14 15 16 17 18 19 20 21 22 23 24 24 25 27 27 26 29 32 38 45 47 46 45 45 45 44 44 45 46 47 47 47 46 45 43 41 40 40
53 52 51 50 48 47 45 44 42 41 41 40 39 39 39 39 38 38 39 40 40 39 37 35 33 32 30 28 26 24 23 20 18 17 15 13 11 10 9 8 8 8 8 10 11 12 13 15 16 17 18 18 19 21 22 24 24 25 26 26 28 29 29 29 32 36 42 47 47 46 46 47 47 46 47 48 48 48 48 47 47 47 45 44 43
53 53 52 51 50 48 47 45 44 43 42 41 40 40 40 40 39 40 40 40 40 39 38 36 34 32 30 28 26 25 23 21 19 17 16 14 12 11 10 9 9 9 9 10 12 12 13 15 16 18 19 19 20 21 23 24 26 27 27 28 28 29 30 31 32 35 38 45 48 47 46 47 48 47 47 49 51 50 50 49 48 49 48 47 46
53 53 52 52 51 49 48 46 44 43 42 42 41 41 40 41 40 40 40 41 41 40 38 37 34 32 30 28 27 26 24 22 20 18 17 15 13 12 11 10 10 10 10 12 12 13 14 15 17 18 20 20 21 22 23 24 26 27 27 28 29 30 31 31 33 35 38 42 46 48 48 48 49 50 48 48 50 51 52 53 52 50 49 50 49
52 53 53 53 52 51 49 47 45 43 43 43 42 41 41 41 41 41 40 41 41 40 39 37 35 33 31 29 28 26 24 23 21 19 17 16 14 13 12 11 11 11 12 13 13 13 14 15 17 18 20 21 22 22 24 25 26 27 28 29 30 30 32 33 34 36 39 42 45 47 48 48 49 50 49 48 48 48 50 54 56 54 52 51 51
51 53 54 54 53 52 50 47 44 44 44 44 43 42 42 42 41 41 41 41 41 40 39 38 35 33 32 30 29 27 25 24 21 20 18 16 15 14 13 12 12 12 13 14 14 14 15 16 17 19 20 21 23 23 24 25 26 27 27 29 30 31 32 34 35 37 39 42 44 46 48 49 49 50 50 49 49 48 48 50 54 56 55 53 51
50 52 54 55 54 53 50 47 45 45 45 45 44 43 42 43 42 42 41 41 41 40 39 38 36 34 33 31 30 28 26 24 22 20 19 18 17 15 14 13 13 13 13 14 15 16 16 17 18 19 20 22 23 24 25 26 27 28 28 29 30 32 33 34 35 37 39 42 44 46 48 49 48 49 50 48 48 49 48 49 51 53 54 55 52
49 52 55 55 54 52 50 47 47 47 47 46 45 44 43 43 43 43 42 42 41 41 40 39 36 35 33 32 31 29 26 24 22 21 20 19 18 16 15 14 14 14 14 15 16 17 18 18 18 19 20 22 23 24 25 26 27 28 29 30 31 32 34 35 36 37 39 42 44 45 48 49 47 47 48 47 46 47 47 48 51 52 53 56 55
48 51 54 55 54 53 51 49 48 48 47 46 45 44 44 44 44 44 43 42 42 41 41 40 38 36 34 33 31 29 27 25 23 22 21 20 19 17 16 16 15 14 15 16 17 18 18 18 18 19 20 22 23 25 26 26 26 27 28 29 30 31 33 35 37 37 39 41 43 43 46 48 47 45 45 46 45 46 47 46 48 50 51 53 55
47 50 53 55 55 54 52 51 50 49 49 47 46 45 45 46 45 44 44 43 43 42 42 41 39 37 35 34 32 30 27 26 25 23 22 21 20 18 17 16 15 15 16 17 18 18 19 19 19 19 20 22 24 25 26 26 26 27 28 28 28 29 31 33 35 37 38 41 43 43 43 45 46 43 42 43 45 46 47 46 46 48 49 49 51
44 48 52 55 56 55 54 52 51 51 50 48 47 46 47 47 46 45 45 44 43 43 42 41 39 38 36 35 33 30 28 27 25 24 23 22 21 19 18 17 16 16 17 18 19 19 20 20 20 20 21 23 24 26 27 27 27 28 28 27 27 28 29 30 31 34 37 39 43 43 41 41 43 42 38 39 43 45 46 47 46 46 47 47 48
41 46 51 55 56 56 55 53 52 51 50 49 48 48 48 48 47 46 45 44 44 43 42 41 40 38 36 35 33 31 29 27 26 25 23 23 22 20 18 17 17 17 18 19 19 19 20 21 22 21 21 23 25 27 28 29 29 29 28 27 27 27 28 28 29 32 34 36 40 41 39 38 39 39 36 36 40 42 45 47 46 47 47 46 46
39 43 49 54 57 57 55 54 53 52 51 49 49 49 49 48 48 47 46 45 44 43 42 41 40 39 36 35 33 31 29 28 27 26 24 23 22 21 19 18 18 18 18 19 19 19 20 21 22 23 23 23 24 27 28 30 30 30 29 28 27 27 26 26 28 31 33 34 36 38 38 35 35 35 35 35 37 39 41 43 44 44 45 45 45
40 43 47 52 56 58 57 55 54 52 51 50 50 51 50 49 48 48 46 45 44 43 42 41 40 38 37 35 34 32 30 28 28 26 25 23 23 21 20 19 19 19 18 18 19 19 19 20 22 24 24 23 24 26 28 30 31 31 31 30 29 28 27 25 27 30 31 32 34 35 35 34 32 33 33 32 34 36 38 40 39 40 42 45 46
41 43 47 51 55 58 58 56 54 53 52 52 51 51 50 49 49 48 47 46 44 44 42 41 40 38 37 35 34 32 30 29 28 27 25 24 23 22 20 20 20 19 18 18 18 18 19 20 22 23 24 24 25 26 28 30 31 32 33 33 33 32 30 28 29 30 30 31 32 31 31 30 29 30 29 28 29 32 35 38 37 37 40 43 45
40 42 46 50 54 57 58 57 55 54 54 53 52 51 50 50 49 48 47 46 44 43 42 40 40 39 37 35 34 32 31 29 29 28 25 24 24 22 21 21 21 20 18 18 19 18 18 19 21 23 24 24 25 26 28 30 32 32 34 36 37 36 34 34 34 34 34 33 32 30 28 27 27 28 27 26 27 28 31 34 34 35 38 40 42
38 40 42 45 50 55 57 57 56 56 55 54 52 51 51 51 49 48 46 45 43 41 40 40 40 39 38 36 34 32 31 30 30 28 26 24 24 23 22 22 22 20 19 19 19 19 19 19 20 22 24 24 25 26 28 30 32 33 34 37 39 38 37 37 38 38 38 37 35 32 30 27 27 27 27 26 26 27 29 31 32 34 37 38 39
35 37 39 42 47 52 56 58 57 57 56 53 51 50 50 50 49 48 46 45 43 41 40 39 40 40 38 36 33 32 32 31 30 28 26 25 24 24 23 23 22 21 21 21 20 19 19 19 20 22 24 25 25 27 28 29 31 33 34 36 38 39 38 39 38 39 39 39 38 35 33 31 30 30 29 29 28 29 30 31 32 33 35 38 38
33 36 39 41 44 49 54 58 58 56 54 51 49 50 51 50 49 48 46 45 43 41 40 39 39 40 38 36 34 33 32 31 30 28 27 25 24 24 24 23 22 23 23 22 21 20 20 20 20 22 24 25 26 27 28 29 31 33 33 34 36 37 39 40 39 39 40 40 38 37 35 34 33 32 31 31 30 31 31 31 32 32 32 34 36
32 35 37 39 42 46 52 57 58 56 53 51 50 50 51 50 49 47 46 45 43 41 40 39 39 39 38 36 34 33 32 31 30 29 28 26 25 24 24 23 23 24 24 22 21 21 21 21 21 22 24 25 25 26 28 29 30 32 32 33 34 35 37 39 39 40 40 39 39 38 36 35 35 34 33 32 31 31 31 30 30 30 30 31 32
29 32 35 38 40 43 48 54 57 55 53 51 50 50 50 49 49 49 47 45 42 40 39 38 38 39 39 37 35 33 32 31 30 29 28 26 25 24 24 23 23 25 25 23 21 22 22 22 23 23 24 25 25 26 28 29 30 31 31 32 33 34 36 38 39 40 40 39 39 39 37 35 35 34 33 33 33 32 31 31 30 30 30 30 30
28 31 33 36 38 40 45 51 55 55 52 50 50 50 50 49 50 49 48 45 42 40 39 38 38 39 39 38 36 34 32 31 30 29 28 27 25 24 24 23 24 25 25 24 22 23 23 23 24 24 25 25 26 27 28 28 29 30 31 31 32 34 36 37 38 39 40 40 39 39 37 35 35 34 34 34 34 33 33 32 31 31 32 32 31
29 30 32 34 36 38 42 48 53 54 52 51 51 51 50 50 50 50 49 46 43 41 39 39 38 38 38 38 36 34 32 31 30 29 28 27 26 25 24 24 24 25 25 24 24 24 24 25 25 25 25 26 27 28 28 28 28 29 30 31 32 34 35 37 38 39 40 39 39 39 37 36 34 34 34 33 33 33 34 34 34 33 33 34 33
28 29 30 31 33 37 41 46 51 52 52 52 51 50 50 49 50 50 49 47 43 41 40 39 39 38 38 37 35 33 32 31 30 29 28 27 26 24 24 24 24 24 25 25 25 25 25 26 26 26 25 26 27 29 30 29 29 29 30 31 32 34 36 37 38 38 39 39 39 38 38 36 35 34 33 33 33 33 34 35 36 35 34 35 36
26 28 29 30 33 37 41 45 50 52 52 52 51 50 48 47 49 50 50 47 44 42 41 40 40 39 38 37 34 33 32 32 31 29 27 27 26 24 24 24 24 24 25 25 26 26 26 26 26 26 26 27 28 29 30 30 30 30 31 32 33 35 36 37 37 37 38 38 38 38 37 36 35 34 34 34 33 33 33 34 36 36 35 36 38
26 28 29 30 33 37 40 45 49 52 53 52 52 51 49 47 49 50 50 47 45 43 41 40 40 40 38 36 33 32 32 32 31 28 26 26 26 25 24 24 24 24 25 26 26 27 26 26 27 27 27 28 28 29 30 31 31 32 32 33 34 35 36 37 37 36 36 36 37 38 37 36 35 34 35 35 35 34 33 34 35 36 35 36 37
26 27 29 31 34 36 40 43 47 51 52 52 51 49 47 46 47 48 47 46 44 41 39 38 38 37 36 34 32 31 31 31 29 27 26 26 25 25 24 24 24 24 25 26 26 27 26 27 27 27 28 29 30 31 32 32 32 32 33 33 35 36 36 37 36 36 36 36 37 37 36 36 35 35 36 37 36 35 34 34 35 35 36 36 37
27 29 31 33 35 37 40 43 47 50 51 51 50 47 45 45 45 44 44 44 43 41 38 36 35 34 34 33 31 30 29 28 28 27 27 26 25 25 24 24 24 24 24 25 27 27 26 27 28 28 29 30 31 32 33 33 34 34 34 35 36 36 37 37 36 36 36 36 36 36 36 36 36 36 37 38 38 37 35 34 35 35 36 37 38
29 31 33 35 36 38 40 43 46 48 49 50 49 47 47 46 45 43 44 44 43 41 38 36 35 34 33 33 32 30 28 27 27 28 28 27 25 25 24 24 24 24 24 26 27 27 27 28 28 28 29 30 32 32 33 34 34 36 37 37 37 37 37 37 36 36 36 36 36 35 35 35 36 37 38 38 39 38 37 36 36 36 36 37 38
29 31 33 35 36 37 39 42 45 48 50 50 49 48 49 48 46 45 45 45 43 41 39 37 36 35 34 34 33 31 28 27 27 28 28 27 26 25 25 24 24 24 24 26 27 26 26 28 29 29 30 31 32 32 33 34 35 36 37 39 39 38 37 37 36 36 36 36 36 36 36 36 37 38 38 38 39 39 38 37 36 36 37 37 38
28 30 32 34 37 39 40 42 45 49 51 51 50 50 49 48 46 46 46 45 43 41 40 38 37 35 34 34 34 31 28 27 27 28 28 27 26 26 25 25 24 24 24 26 26 26 26 27 28 29 30 31 32 32 33 33 34 36 37 38 39 39 37 36 36 36 36 36 36 36 36 36 37 38 39 38 38 38 38 38 37 37 38 38 38
26 28 30 33 36 39 42 44 47 49 50 50 50 50 48 46 44 44 44 44 43 42 41 40 38 36 35 33 33 32 29 28 28 28 28 27 27 26 26 25 24 24 24 25 25 25 26 27 28 28 30 31 32 32 33 34 34 36 37 38 38 38 37 36 36 36 36 36 36 36 36 36 37 38 39 39 38 38 38 37 37 37 37 38 38
26 29 30 32 35 39 42 45 46 47 48 49 49 48 46 44 44 44 43 42 41 39 38 38 37 35 34 32 32 31 29 28 28 28 28 28 27 27 27 26 24 23 23 24 24 25 25 26 27 28 29 31 31 32 33 34 34 35 37 38 38 37 37 36 37 37 37 36 36 36 36 37 37 37 38 38 38 37 37 36 36 36 36 36 37
27 30 32 33 35 38 41 44 44 44 46 47 47 45 44 43 43 43 42 40 39 37 36 36 35 34 32 31 30 29 28 28 28 28 28 28 28 27 27 26 24 23 23 23 23 24 25 26 27 28 29 31 31 32 32 33 34 35 36 37 37 37 37 37 37 37 37 37 36 36 37 37 37 37 37 37 36 35 35 35 35 35 34 34 34
29 32 34 34 36 38 41 42 41 41 43 45 45 44 44 43 42 42 40 39 38 37 36 36 35 34 34 32 30 28 27 27 28 28 29 28 28 28 27 25 24 23 22 21 22 24 25 25 27 28 29 30 30 31 32 33 34 35 36 36 36 36 36 37 37 37 37 37 37 37 37 37 37 35 35 35 35 34 34 33 33 33 33 32 32
28 32 34 35 36 38 40 39 39 40 42 44 44 44 43 43 42 41 40 38 37 36 35 36 36 36 35 33 29 27 26 27 28 29 29 28 28 26 25 24 24 23 22 21 21 23 24 25 26 27 28 29 29 30 31 32 34 35 35 35 35 35 36 36 36 36 37 36 36 36 37 36 36 34 34 34 34 33 32 32 31 32 32 32 32
29 32 34 34 36 38 38 38 38 41 44 45 45 44 44 43 42 40 39 38 37 36 35 35 35 34 34 33 31 29 27 28 28 27 27 27 26 25 25 24 23 22 21 20 21 22 23 24 26 27 28 28 29 30 31 32 34 34 34 34 35 35 35 36 36 36 36 36 36 36 36 35 34 34 33 32 32 31 30 30 30 30 31 31 31
30 32 34 35 36 37 37 37 38 42 44 45 45 45 45 43 41 40 39 38 36 34 33 33 32 31 32 32 32 30 28 27 26 25 24 25 25 25 24 23 21 21 20 20 21 22 23 24 25 26 27 27 28 29 31 32 33 33 33 34 35 35 35 35 36 36 36 36 36 36 35 35 34 33 32 30 29 29 28 28 29 28 28 29 29
30 32 34 35 35 35 36 38 40 42 43 43 44 44 44 42 40 39 37 36 34 32 31 30 30 29 29 30 29 28 26 25 24 23 23 24 25 24 23 21 20 20 20 20 20 21 23 24 25 26 26 27 27 29 30 32 32 32 32 33 34 35 35 35 35 35 36 36 36 35 35 34 32 32 31 29 28 27 26 26 26 26 26 27 28
30 32 33 34 35 36 37 39 40 40 41 42 43 43 41 40 39 37 35 33 32 30 29 29 29 29 29 28 27 26 25 24 23 23 23 24 24 23 21 19 18 18 19 19 19 21 22 23 24 25 25 26 27 28 30 31 30 31 32 33 34 34 34 34 35 35 36 36 36 34 34 33 31 30 29 27 26 25 25 24 24 25 26 26 27
30 31 32 34 36 37 37 38 39 40 41 42 41 41 39 38 37 35 33 31 30 29 28 28 29 29 28 27 27 26 24 23 23 23 23 23 23 21 19 18 17 18 18 18 19 20 22 22 23 23 24 25 26 28 29 29 30 31 32 33 33 33 34 34 35 35 36 36 35 34 33 32 30 28 27 25 24 23 23 22 23 24 25 25 26
30 31 32 34 36 37 37 38 39 39 40 40 40 39 39 38 36 33 31 29 28 27 26 26 28 28 28 27 27 25 23 22 22 21 22 22 21 18 17 17 17 17 17 17 18 19 21 21 22 22 22 24 26 27 27 28 29 30 31 32 32 33 34 34 35 35 35 35 34 33 32 29 28 26 24 23 23 22 21 22 22 23 24 25 26
30 31 33 34 36 38 39 39 39 38 38 39 40 40 39 37 35 32 29 28 26 25 25 26 27 28 28 27 25 23 22 21 20 21 21 21 19 17 16 16 16 16 16 16 17 19 20 20 21 21 22 23 25 26 26 26 28 29 30 31 32 33 33 34 34 34 34 34 33 31 29 27 25 24 23 22 21 21 21 21 21 22 23 24 25
30 32 33 35 37 39 40 40 39 39 38 39 40 39 38 36 34 31 28 26 25 25 25 26 27 27 27 26 24 22 21 20 20 21 20 19 17 16 15 15 16 15 15 15 17 18 19 19 20 20 21 23 24 24 25 26 27 28 28 29 31 32 33 34 33 33 33 32 30 29 27 25 24 22 22 21 21 20 19 19 20 21 22 23 25
30 32 33 34 36 38 39 39 39 39 39 39 39 38 37 34 32 30 27 26 25 25 26 26 27 27 25 24 22 21 20 20 20 20 19 17 15 15 15 15 14 14 14 15 16 17 17 18 18 19 21 22 23 23 24 25 25 26 27 29 30 31 32 32 32 32 31 29 28 26 25 24 22 21 21 21 20 19 19 19 19 20 21 22 23
31 32 33 34 36 37 38 39 39 39 39 39 38 37 36 33 31 29 27 26 27 27 26 26 26 25 24 22 21 20 19 20 20 19 17 16 15 14 14 14 13 13 13 14 15 16 16 17 18 19 20 21 22 22 23 24 24 25 27 28 30 31 31 31 31 30 29 27 26 24 22 21 21 21 20 19 19 19 18 18 18 19 20 21 22
30 32 33 34 36 37 38 38 38 38 38 38 37 36 35 33 30 28 27 27 27 27 26 26 25 24 23 21 20 20 20 20 19 17 16 15 14 13 13 13 12 13 13 14 14 15 15 16 17 19 20 20 21 21 22 23 23 24 27 28 29 30 30 30 29 29 27 25 23 22 20 20 20 19 19 18 18 18 18 17 17 18 19 20 21
30 32 33 34 35 36 37 37 37 36 36 37 36 35 34 32 30 29 28 28 27 27 26 25 24 23 22 21 20 19 19 18 17 16 15 14 13 12 12 12 11 12 13 13 14 14 14 15 17 18 18 19 20 21 21 22 22 24 27 28 29 29 29 29 28 27 25 23 21 20 19 19 18 18 17 17 17 17 16 16 16 17 18 19 20
30 31 32 32 33 34 35 36 36 36 36 36 36 35 33 31 29 28 28 27 27 26 25 24 22 21 20 20 19 19 18 17 16 15 14 13 12 12 11 11 11 11 12 13 13 13 14 14 16 17 17 18 19 20 20 21 22 25 27 28 28 28 28 27 26 25 23 21 20 19 18 18 17 16 16 16 16 15 15 14 14 16 17 18 19
Wind_Direction
222 221 219 218 218 217 216 216 217 217 215 213 211 210 210 210 209 208 206 205 204 204 204 204 204 204 203 203 203 203 204 204 205 205 208 215 221 231 243 257 278 299 316 325 332 335 339 342 344 344 343 340 340 339 338 339 339 339 338 335 336 335 331 326 319 320 328 333 333 337 341 339 341 344 340 337 336 335 335 337 339 341 342 340 339
222 221 219 218 217 217 216 216 217 216 215 213 211 210 210 210 209 208 207 206 205 205 205 205 206 206 205 205 205 206 207 206 206 207 211 217 223 230 240 253 271 291 308 318 325 330 334 338 339 340 340 338 337 336 335 336 335 335 336 333 334 336 332 326 322 320 324 330 334 336 339 339 339 343 342 338 336 336 336 337 338 341 342 340 338
223 221 220 219 217 216 216 216 217 216 215 213 211 209 210 210 209 209 208 207 206 206 206 207 207 207 207 208 208 208 209 208 208 210 213 218 224 230 238 250 266 284 302 312 320 325 329 334 335 336 336 334 334 333 332 332 332 333 334 334 333 335 332 327 324 321 322 327 332 335 338 338 339 342 342 339 337 337 336 336 337 339 341 341 339
223 221 220 219 217 216 216 216 216 216 215 214 211 209 210 210 210 209 209 208 207 206 207 208 209 209 209 209 210 210 210 210 211 213 216 220 226 231 238 250 264 281 298 307 313 319 325 329 330 331 332 332 332 331 330 330 331 332 334 335 334 332 331 328 326 324 322 324 330 334 336 337 338 341 341 338 336 336 335 335 335 337 339 340 339
223 221 220 218 217 216 217 216 216 216 215 214 212 211 210 210 210 210 210 209 208 208 209 210 210 210 210 211 211 212 212 212 213 215 218 223 228 233 240 251 264 279 293 301 306 315 321 323 326 327 328 330 330 329 329 329 330 333 334 334 332 330 329 328 326 325 323 324 328 332 336 337 336 339 341 337 335 335 334 333 334 335 337 338 338
225 223 220 219 218 218 218 217 216 216 215 215 214 212 211 211 211 211 211 210 209 209 210 211 211 210 211 212 212 213 213 214 215 217 220 224 229 235 242 251 264 277 288 296 302 310 316 318 321 324 325 327 328 327 328 328 329 332 332 330 330 328 327 327 326 325 325 326 327 330 334 336 335 336 339 337 335 335 333 332 332 334 336 336 337
227 224 222 220 219 219 219 218 217 216 216 216 215 213 212 211 212 212 212 211 210 210 211 212 212 212 212 213 214 214 214 215 216 218 222 226 230 236 243 251 262 274 283 292 299 306 311 314 317 321 323 324 325 326 326 327 328 330 329 328 328 327 326 327 327 328 328 327 328 329 331 333 334 334 335 335 334 334 332 331 331 333 335 334 335
229 225 222 220 220 220 220 219 217 217 217 217 215 213 212 212 212 213 212 212 211 211 212 213 213 212 213 214 215 215 216 217 218 221 224 228 232 238 244 251 261 272 282 290 297 302 307 310 314 319 321 322 323 324 324 325 327 328 328 327 326 327 327 327 328 329 328 327 328 329 329 330 333 333 333 334 334 333 332 330 328 331 332 331 333
230 226 222 220 220 220 220 218 217 218 218 217 215 214 213 212 213 213 213 212 211 211 213 214 214 214 214 215 216 217 217 218 220 222 225 230 234 239 246 253 262 271 280 289 296 300 304 308 313 317 320 321 321 322 323 324 325 326 327 327 326 327 327 328 329 329 328 326 327 328 326 328 333 333 332 333 332 330 330 329 326 328 329 328 331
231 227 223 221 220 220 219 218 218 218 218 217 215 214 213 213 213 213 212 212 212 212 213 214 214 215 216 217 218 218 219 219 221 224 227 232 236 241 248 255 263 272 281 288 294 298 302 306 311 315 318 319 319 320 321 322 323 325 327 327 327 327 327 328 328 328 326 324 325 326 325 326 331 332 330 331 330 327 328 327 326 327 329 328 330
233 229 225 222 220 220 219 218 218 219 218 217 215 214 213 213 213 213 213 212 211 212 213 214 215 215 217 219 220 220 220 220 223 226 230 234 238 243 249 256 264 273 281 287 290 293 297 301 307 313 317 318 318 318 318 320 322 323 325 326 326 327 327 327 327 326 324 322 322 324 324 326 329 330 329 329 327 325 325 325 326 327 329 327 327
236 231 227 223 220 220 219 218 218 219 218 217 215 214 214 214 213 213 213 212 212 212 214 215 216 216 218 219 220 220 220 221 224 228 231 235 240 244 250 257 265 273 280 284 286 289 294 299 307 314 317 317 316 316 316 318 321 322 324 325 325 326 326 325 324 323 321 319 320 322 325 325 326 328 330 327 324 323 323 324 326 325 325 324 322
238 234 229 224 222 221 220 219 219 218 218 216 214 214 214 214 214 214 214 213 213 214 215 216 217 218 219 220 221 221 221 223 226 229 233 237 241 246 251 257 265 271 277 281 285 290 296 302 309 315 316 316 315 315 316 318 319 320 322 323 323 324 323 322 321 319 317 318 318 320 325 325 322 326 328 324 320 321 322 323 325 321 321 322 321
240 235 231 226 223 222 221 220 219 219 218 216 214 214 215 214 214 214 214 214 214 215 216 217 218 219 220 222 223 223 223 225 228 231 234 238 242 247 252 257 263 269 274 280 285 291 298 303 309 313 314 315 315 314 315 316 317 318 319 320 321 321 321 321 318 314 315 317 316 318 323 323 320 321 324 321 319 320 320 321 321 319 319 321 320
240 236 233 229 225 223 221 220 219 219 218 216 215 215 215 214 214 214 215 215 215 216 217 218 220 220 222 223 224 224 224 226 230 232 235 239 244 248 253 258 262 267 272 278 284 291 297 302 307 310 313 315 313 312 313 314 314 315 317 318 318 319 321 320 316 313 316 317 316 317 320 321 319 320 323 323 320 317 315 314 317 318 318 319 321
241 237 233 229 226 223 221 221 220 220 219 217 216 216 215 215 215 215 215 215 216 217 218 219 221 221 222 224 225 225 226 228 231 234 236 240 245 249 254 259 263 266 271 277 282 289 295 300 305 308 312 313 311 310 311 311 312 314 316 317 317 319 323 321 315 315 318 318 317 318 320 321 321 321 322 320 315 312 310 311 316 319 317 319 323
242 239 234 229 225 223 221 221 221 221 220 219 218 217 216 215 215 215 215 215 216 218 219 220 221 222 223 225 226 227 228 229 233 236 238 242 246 251 256 261 264 267 271 275 280 287 293 298 302 305 308 310 308 309 310 310 312 315 317 318 319 322 325 323 319 320 322 320 320 320 320 321 319 318 317 314 312 313 312 314 320 321 318 320 325
244 240 235 230 227 224 222 222 223 223 222 221 219 217 216 216 216 216 216 217 218 219 221 221 222 223 224 225 226 228 229 231 235 237 239 243 248 253 257 261 266 269 273 276 280 285 290 295 300 303 306 307 307 308 309 311 314 317 319 320 321 324 326 324 324 326 326 324 324 323 322 321 318 316 317 317 317 317 314 317 322 321 319 321 323
247 244 240 236 231 227 224 223 223 224 224 222 220 218 217 216 216 216 216 217 220 221 222 223 223 224 225 225 227 229 230 232 236 238 240 243 249 254 258 262 267 272 276 279 282 286 290 294 299 302 305 305 306 308 312 314 317 319 321 321 321 324 326 326 327 328 327 327 328 326 325 324 321 321 322 323 324 323 322 322 323 322 321 321 321
254 249 244 239 234 229 225 223 223 224 225 223 221 219 218 217 216 216 216 217 220 223 224 224 225 225 226 227 228 230 232 234 237 239 241 244 249 254 259 264 270 274 276 279 282 287 291 295 301 303 303 304 307 311 314 317 318 320 320 320 321 323 325 325 327 328 327 328 328 327 327 328 328 328 329 330 331 330 329 327 325 323 320 318 318
255 249 244 240 236 231 226 224 224 225 225 223 221 220 219 218 217 216 216 218 221 224 224 225 226 226 227 228 229 232 234 235 238 241 243 245 248 254 259 265 271 273 275 279 284 289 293 298 302 303 303 306 310 314 316 319 319 319 319 319 320 322 323 324 327 328 327 327 327 327 329 331 331 332 333 334 334 333 332 330 326 322 317 315 316
253 249 245 242 238 233 228 224 223 224 224 221 220 220 219 218 217 217 217 220 224 225 225 226 227 227 228 229 230 233 235 237 239 241 244 246 249 254 259 264 269 272 276 281 287 292 296 299 303 303 303 307 311 315 318 320 318 316 317 318 318 319 321 324 327 327 327 327 327 328 331 332 331 332 333 334 334 333 331 329 324 319 317 317 318
253 250 247 243 239 235 230 225 223 223 222 220 220 220 220 217 216 216 218 222 225 226 227 227 228 228 229 230 231 234 235 237 240 241 244 248 251 255 260 264 268 273 278 284 290 293 297 300 303 303 304 307 312 316 318 317 315 315 315 315 316 319 322 325 327 327 327 328 328 329 332 332 331 331 333 333 334 332 330 327 324 321 319 321 322
249 247 245 242 239 235 230 226 223 222 221 220 220 220 219 218 216 216 218 222 226 227 228 228 228 229 231 231 233 235 236 238 241 242 245 249 252 256 261 264 269 274 279 286 291 294 297 300 301 303 306 310 314 316 316 315 314 313 313 314 317 322 325 327 328 328 327 328 328 329 330 331 330 330 332 333 333 331 327 325 324 324 323 323 324
245 244 242 240 238 234 230 225 223 221 220 220 220 219 218 217 216 217 218 222 226 228 228 228 229 230 232 233 235 237 237 238 241 243 246 249 252 257 261 265 269 274 280 286 291 294 296 299 301 305 309 312 313 314 315 315 313 311 313 316 321 325 327 329 329 329 328 328 328 328 329 330 329 330 332 332 331 329 327 325 326 327 326 324 324
244 242 240 239 235 232 229 225 222 220 220 220 220 220 219 218 217 217 219 223 227 228 228 229 229 231 232 234 236 239 240 239 240 242 246 249 252 256 261 266 270 275 281 286 289 293 295 298 303 307 310 312 314 315 315 315 313 313 317 321 325 328 330 331 331 330 328 328 327 327 328 328 328 330 331 331 330 330 329 327 327 328 327 324 322
243 239 237 235 231 229 227 224 221 218 218 218 218 219 219 219 218 218 220 223 226 228 228 229 230 231 232 234 236 239 241 242 241 241 245 249 254 257 261 267 272 276 281 285 288 291 295 299 304 309 311 313 314 314 314 314 315 319 323 326 329 331 332 332 331 330 328 327 326 326 327 327 328 330 330 330 331 333 331 328 327 327 327 325 323
240 237 235 231 228 227 225 223 221 218 217 217 217 216 217 217 219 220 223 225 227 229 229 230 231 231 232 234 237 240 243 245 245 244 244 248 254 258 262 267 271 275 279 283 286 290 296 301 306 309 311 313 314 314 316 318 321 324 328 329 331 332 333 332 331 330 328 326 325 326 327 327 328 330 330 330 332 334 332 329 327 326 326 325 324
238 234 231 228 226 225 223 222 221 219 218 217 216 217 217 218 220 222 224 228 231 234 236 237 236 236 235 236 239 243 247 250 251 249 248 249 252 256 260 264 268 272 277 282 286 292 298 303 306 309 312 314 316 319 321 322 325 327 329 330 331 332 333 332 331 330 328 327 326 327 327 328 328 330 331 331 333 334 332 330 328 327 327 327 326
235 230 227 225 223 222 220 220 219 219 218 216 215 215 217 220 222 224 226 229 232 235 238 239 240 240 239 240 243 247 251 254 254 253 251 252 254 257 260 264 268 273 279 284 289 294 300 304 307 311 315 317 319 322 323 325 327 328 329 331 332 333 333 333 332 330 329 328 328 328 328 328 329 331 332 332 332 333 332 330 329 328 328 328 327
234 229 225 223 222 220 218 218 217 217 216 216 215 213 214 216 219 222 226 229 231 233 235 236 237 239 239 240 242 246 250 253 254 253 253 254 256 259 263 267 271 276 281 285 290 296 301 305 309 313 317 319 320 323 325 326 328 329 329 330 332 333 334 334 332 331 330 329 329 329 329 330 331 332 332 331 331 332 332 331 331 329 329 329 327
236 231 227 224 221 220 219 217 215 214 213 213 213 214 214 215 215 218 222 227 230 232 233 234 235 237 237 237 240 243 248 252 253 253 254 255 258 261 265 268 272 277 281 286 291 298 303 307 311 315 318 319 321 324 326 327 328 328 329 330 331 334 335 334 333 332 331 331 330 331 332 333 332 331 331 330 330 331 331 332 332 330 329 329 328
239 235 230 226 222 219 218 215 213 212 212 211 211 213 215 216 216 217 221 224 226 229 230 231 234 235 236 237 238 241 246 250 251 253 254 255 257 260 264 267 272 276 281 287 293 300 305 308 312 316 318 319 322 324 325 326 327 328 329 329 331 334 336 335 333 332 332 332 332 334 334 334 332 330 330 330 330 330 331 331 331 331 330 329 329
240 236 232 228 224 220 217 215 213 212 211 211 211 212 214 216 218 220 223 225 226 227 228 229 231 233 234 236 237 239 243 248 250 253 254 255 258 260 263 267 272 277 283 289 295 301 306 309 313 316 317 320 323 324 325 327 327 328 328 330 332 334 335 335 333 333 333 334 335 336 335 334 332 330 330 331 331 331 331 331 330 330 330 329 330
236 233 231 228 226 223 220 217 215 212 211 210 211 212 213 214 217 221 226 229 232 232 232 232 232 233 234 235 236 238 241 245 249 251 252 253 256 260 263 268 273 278 284 289 295 301 305 308 312 315 318 321 324 324 325 326 327 327 329 331 334 335 335 335 334 334 335 335 336 337 335 333 332 331 330 331 331 331 331 331 330 330 330 330 330
231 229 228 226 225 224 222 220 217 214 211 210 211 213 214 215 218 222 226 230 233 235 236 236 236 235 235 235 236 238 240 243 247 249 249 251 254 257 261 267 273 278 283 289 296 301 304 309 314 318 320 323 323 324 324 325 326 328 330 333 335 335 335 335 335 335 335 336 337 337 335 333 333 332 331 331 331 330 330 330 329 330 331 331 331
229 227 226 225 223 222 222 222 220 215 212 211 211 212 214 217 220 223 227 229 232 233 235 235 234 233 233 233 235 237 240 243 245 247 248 249 252 255 260 267 273 279 284 291 297 302 306 312 316 318 320 321 322 322 324 324 326 329 332 334 335 335 335 335 336 335 336 337 337 336 334 333 333 333 331 331 332 332 331 331 331 331 333 334 334
230 229 228 225 223 221 220 220 218 214 212 212 212 212 214 217 220 223 227 230 232 233 234 234 234 232 231 232 234 237 241 243 244 245 246 248 251 256 262 268 274 280 287 293 298 302 307 312 315 316 318 320 321 322 323 325 328 331 334 334 335 335 335 336 337 337 337 338 336 335 334 333 333 333 333 333 333 332 332 333 334 335 336 338 337
228 229 228 227 225 223 220 217 214 210 210 211 211 212 214 217 219 222 226 228 232 234 235 235 236 234 232 231 232 236 241 243 244 245 247 249 252 256 261 267 274 281 288 294 298 303 307 311 314 316 319 320 322 322 324 327 330 333 335 334 335 336 337 337 338 338 338 337 336 334 334 334 334 335 335 334 333 333 334 336 338 338 337 338 339
226 226 226 225 224 223 220 217 213 209 209 210 210 212 214 217 219 222 224 227 231 234 235 237 237 235 233 231 231 235 242 245 247 249 250 250 252 255 260 267 276 282 288 293 298 304 308 311 314 317 319 320 322 323 325 329 332 334 335 335 335 337 339 339 338 338 337 336 336 335 335 336 337 336 336 336 336 336 337 338 340 340 338 339 341
228 225 225 224 222 220 217 215 212 209 208 209 210 212 215 217 220 222 225 228 232 234 236 238 239 237 235 233 232 236 242 246 248 249 249 249 251 254 259 267 274 280 286 293 299 305 309 312 315 317 319 320 322 324 326 330 333 334 335 336 337 338 339 339 339 338 337 337 337 337 337 338 338 337 337 338 338 339 340 340 341 342 342 343 344
229 227 225 222 219 217 214 213 211 209 209 210 212 214 216 218 220 222 225 229 232 234 236 238 238 237 235 233 232 236 242 244 244 245 246 248 251 254 260 268 275 281 287 295 301 306 309 311 314 317 318 320 322 325 328 332 334 335 336 337 338 339 339 339 339 339 338 338 339 339 339 340 340 339 339 339 339 341 343 344 345 346 346 347 348
230 229 227 223 218 215 213 212 211 209 209 210 212 214 216 218 220 223 226 229 232 234 235 236 236 236 234 232 233 237 241 242 242 243 245 247 251 255 262 271 279 284 290 297 302 305 307 309 313 315 318 320 324 327 331 334 335 336 337 338 339 339 339 339 340 340 340 340 340 341 342 341 340 340 340 341 342 344 347 349 350 350 350 351 352
230 228 226 222 219 216 214 213 213 212 211 211 212 213 215 217 220 222 225 227 230 232 234 234 235 234 231 231 233 237 240 240 241 243 245 247 250 256 264 272 278 283 290 296 300 302 305 309 312 315 319 322 326 330 333 335 336 337 338 339 339 339 340 341 341 342 341 341 342 342 342 341 341 342 343 344 346 349 353 353 353 353 354 355 356
229 228 224 220 218 216 214 214 214 213 212 212 212 212 214 216 218 220 223 224 226 229 230 232 232 230 228 229 233 237 240 240 240 242 244 247 250 257 264 271 277 283 289 295 299 301 305 309 312 316 321 325 328 332 335 337 338 339 339 338 339 340 342 343 343 342 342 342 342 342 342 343 344 345 346 348 352 355 357 357 356 356 357 358 357
227 227 224 220 218 216 215 215 215 214 213 212 211 211 213 214 216 218 220 221 223 225 226 228 229 227 226 228 233 236 237 237 238 240 242 245 249 256 264 270 276 283 290 295 298 301 305 309 313 318 323 328 331 334 337 338 339 339 339 338 340 342 343 344 343 343 343 343 342 342 344 346 348 348 351 355 358 359 360 360 360 0 360 359 357
227 226 225 222 220 218 217 217 216 215 213 211 211 211 212 213 214 216 217 218 220 222 223 224 225 225 226 228 231 233 234 234 235 238 240 243 248 256 264 270 277 284 290 294 297 301 305 309 314 320 325 329 333 336 338 339 340 340 340 341 343 344 344 344 343 343 343 343 344 346 347 349 351 354 357 359 1 2 3 4 4 4 3 0 358
226 225 224 223 221 220 219 218 217 216 212 210 210 210 211 213 213 214 215 216 217 218 219 220 221 223 225 227 229 229 229 230 232 234 237 241 248 256 264 272 279 286 290 293 297 302 306 310 316 322 327 331 335 337 339 340 340 340 341 343 345 346 345 345 344 344 345 346 348 350 351 353 356 359 0 1 3 5 7 8 8 7 4 2 1
225 224 225 224 223 222 221 219 217 214 211 209 209 209 210 211 212 212 213 215 216 217 217 216 217 219 222 224 226 226 225 226 229 231 234 241 249 256 264 272 279 285 290 293 297 302 306 311 318 325 329 332 335 338 339 340 341 342 344 346 347 347 347 346 345 345 347 350 352 354 356 360 1 1 2 4 7 8 9 10 10 8 5 4 5
226 226 227 227 225 223 221 219 216 213 210 210 210 209 209 209 210 211 212 213 214 215 214 214 214 217 219 221 224 225 224 224 225 226 232 241 249 256 263 271 277 283 288 291 296 301 306 313 321 326 329 332 336 338 339 341 343 345 346 348 349 349 348 347 347 347 350 353 356 360 3 5 4 4 5 8 11 12 13 13 11 9 8 8 8
226 227 228 227 225 222 219 215 213 212 211 210 210 210 209 208 209 210 211 212 212 211 211 211 212 214 216 218 220 222 221 221 222 225 232 241 249 256 263 271 276 280 284 289 294 300 307 315 322 326 329 333 336 338 340 343 346 348 349 350 350 349 348 348 349 351 354 357 1 5 9 8 7 8 11 14 16 17 17 17 15 13 12 11 11
Height
1453 1457 1461 1464 1466 1469 1471 1474 1476 1478 1480 1482 1484 1486 1488 1491 1493 1495 1497 1499 1501 1504 1506 1508 1510 1511 1512 1514 1515 1517 1518 1518 1519 1520 1520 1520 1521 1521 1521 1522 1521 1521 1520 1519 1519 1518 1516 1515 1513 1511 1511 1510 1509 1509 1508 1507 1505 1503 1501 1499 1497 1495 1490 1487 1481 1471 1468 1471 1469 1465 1464 1460 1456 1454 1450 1446 1445 1443 1440 1437 1434 1431 1427 1422 1419
1450 1454 1457 1460 1462 1465 1468 1470 1473 1475 1477 1479 1481 1483 1485 1488 1490 1493 1495 1497 1499 1501 1504 1506 1508 1509 1510 1511 1513 1515 1516 1517 1517 1518 1519 1519 1519 1520 1520 1520 1520 1519 1518 1518 1517 1517 1515 1513 1512 1510 1509 1508 1508 1507 1506 1506 1504 1502 1500 1497 1494 1493 1490 1485 1481 1473 1465 1465 1465 1462 1460 1457 1453 1451 1448 1443 1439 1436 1434 1432 1430 1427 1425 1421 1416
1448 1451 1453 1456 1459 1462 1464 1466 1469 1471 1473 1475 1477 1480 1482 1485 1488 1490 1492 1494 1496 1499 1501 1504 1505 1507 1508 1509 1511 1513 1514 1515 1516 1516 1517 1517 1517 1518 1518 1518 1518 1517 1517 1516 1516 1515 1514 1512 1510 1509 1508 1507 1506 1506 1505 1504 1503 1501 1498 1496 1492 1490 1489 1485 1481 1475 1465 1460 1461 1459 1455 1453 1449 1447 1444 1440 1436 1432 1429 1427 1425 1423 1421 1418 1414
1445 1447 1450 1453 1456 1458 1460 1462 1465 1467 1469 1472 1474 1477 1479 1482 1485 1487 1489 1491 1494 1496 1498 1501 1503 1504 1506 1507 1509 1511 1512 1513 1514 1514 1515 1516 1516 1516 1516 1516 1516 1516 1515 1514 1514 1514 1512 1511 1509 1507 1506 1505 1504 1504 1503 1502 1500 1498 1495 1493 1490 1487 1486 1483 1479 1475 1467 1459 1457 1457 1453 1449 1445 1443 1440 1435 1432 1430 1426 1423 1420 1417 1415 1413 1410
1440 1443 1447 1449 1452 1454 1456 1458 1461 1463 1466 1469 1471 1474 1476 1479 1481 1484 1486 1489 1491 1493 1496 1498 1500 1502 1504 1505 1507 1509 1510 1511 1512 1513 1513 1514 1514 1514 1514 1514 1514 1514 1513 1513 1513 1512 1511 1509 1508 1506 1504 1504 1503 1502 1501 1500 1497 1495 1492 1489 1488 1485 1483 1481 1478 1474 1468 1460 1454 1452 1451 1446 1442 1440 1438 1432 1427 1424 1421 1419 1416 1413 1410 1407 1405
1437 1440 1443 1446 1448 1450 1452 1455 1458 1460 1463 1466 1468 1470 1473 1476 1478 1481 1483 1486 1488 1491 1493 1496 1498 1500 1502 1503 1504 1506 1508 1509 1510 1511 1511 1512 1512 1512 1512 1512 1512 1512 1511 1511 1511 1510 1509 1508 1506 1505 1503 1501 1501 1500 1499 1498 1495 1492 1490 1487 1485 1483 1480 1478 1475 1471 1467 1461 1454 1449 1447 1444 1439 1435 1435 1432 1425 1419 1414 1410 1410 1409 1406 1402 1399
1432 1435 1438 1441 1444 1447 1449 1452 1455 1458 1460 1462 1465 1467 1470 1473 1476 1478 1481 1483 1486 1488 1491 1493 1496 1498 1499 1500 1502 1504 1506 1507 1508 1509 1509 1510 1510 1510 1510 1510 1510 1510 1509 1509 1509 1508 1508 1507 1505 1503 1501 1500 1499 1498 1497 1495 1493 1490 1488 1485 1483 1480 1478 1475 1472 1468 1463 1459 1454 1449 1444 1442 1438 1433 1431 1429 1425 1420 1414 1406 1401 1401 1400 1397 1394
1427 1430 1433 1436 1439 1442 1445 1449 1452 1455 1457 1459 1462 1464 1467 1470 1473 1475 1478 1480 1483 1486 1488 1491 1493 1495 1497 1498 1499 1501 1503 1504 1506 1507 1507 1508 1508 1508 1508 1508 1508 1508 1508 1507 1507 1506 1505 1505 1503 1501 1500 1498 1497 1496 1494 1492 1490 1488 1486 1483 1480 1477 1474 1471 1468 1465 1461 1456 1451 1447 1442 1439 1436 1432 1428 1425 1421 1417 1415 1408 1400 1396 1394 1392 1391
1424 1426 1429 1431 1434 1438 1442 1446 1449 1451 1453 1455 1458 1461 1464 1467 1469 1472 1475 1477 1480 1483 1486 1489 1491 1493 1494 1496 1497 1499 1500 1502 1503 1505 1505 1506 1506 1506 1506 1506 1506 1506 1505 1505 1504 1504 1503 1502 1501 1499 1498 1496 1495 1494 1492 1490 1488 1485 1483 1480 1477 1474 1471 1468 1465 1461 1458 1453 1449 1445 1440 1437 1434 1429 1424 1422 1418 1413 1411 1408 1401 1397 1392 1387 1387
1420 1422 1424 1427 1431 1435 1439 1442 1444 1446 1449 1451 1455 1458 1460 1463 1466 1469 1471 1474 1477 1480 1483 1485 1488 1490 1492 1493 1495 1496 1498 1500 1501 1502 1503 1503 1504 1504 1504 1504 1504 1503 1503 1503 1502 1502 1501 1500 1499 1497 1495 1494 1493 1492 1490 1488 1486 1483 1480 1477 1474 1471 1468 1465 1462 1459 1455 1451 1447 1444 1438 1433 1432 1429 1423 1419 1417 1412 1409 1405 1399 1395 1390 1382 1378
1415 1417 1420 1424 1428 1431 1435 1438 1440 1443 1445 1448 1452 1455 1457 1460 1463 1465 1468 1471 1474 1477 1479 1482 1485 1487 1489 1491 1493 1494 1496 1498 1499 1500 1501 1501 1501 1502 1502 1501 1501 1501 1501 1501 1500 1500 1499 1498 1497 1495 1493 1492 1491 1489 1488 1486 1484 1481 1479 1476 1473 1470 1466 1462 1459 1457 1453 1448 1445 1443 1438 1431 1429 1427 1422 1417 1414 1410 1407 1404 1399 1393 1389 1383 1376
1412 1414 1417 1421 1424 1426 1430 1433 1436 1438 1442 1445 1449 1452 1455 1457 1460 1462 1465 1468 1471 1474 1476 1479 1481 1484 1487 1488 1490 1492 1493 1495 1496 1497 1498 1499 1499 1499 1499 1499 1499 1499 1499 1498 1498 1498 1497 1496 1494 1492 1491 1490 1488 1487 1485 1483 1481 1479 1476 1474 1471 1468 1466 1462 1458 1455 1451 1446 1442 1440 1437 1431 1426 1425 1422 1416 1411 1407 1404 1402 1399 1393 1389 1385 1378
1409 1412 1415 1417 1420 1422 1426 1429 1432 1435 1438 1442 1446 1449 1451 1454 1456 1459 1462 1465 1468 1471 1473 1476 1479 1481 1484 1486 1488 1489 1491 1492 1494 1495 1496 1496 1496 1496 1497 1497 1497 1497 1496 1496 1496 1495 1494 1492 1491 1490 1489 1487 1486 1484 1482 1480 1478 1476 1474 1472 1470 1467 1465 1462 1459 1455 1451 1446 1440 1437 1436 1431 1425 1422 1421 1416 1409 1405 1401 1398 1396 1392 1387 1384 1378
1405 1408 1411 1414 1417 1420 1423 1426 1429 1432 1435 1439 1442 1445 1447 1450 1453 1456 1459 1462 1465 1468 1470 1473 1476 1478 1481 1484 1485 1487 1488 1490 1491 1492 1493 1494 1494 1494 1494 1494 1495 1495 1495 1494 1493 1492 1491 1489 1488 1487 1486 1485 1483 1480 1478 1477 1475 1473 1472 1469 1467 1466 1463 1461 1458 1454 1450 1446 1440 1435 1434 1431 1425 1421 1420 1416 1409 1404 1399 1394 1391 1388 1384 1381 1377
1401 1403 1406 1410 1415 1418 1421 1424 1426 1429 1432 1436 1439 1441 1444 1447 1450 1453 1456 1459 1462 1465 1468 1470 1473 1476 1479 1481 1483 1484 1486 1488 1489 1490 1491 1491 1491 1491 1491 1492 1492 1493 1493 1492 1491 1490 1489 1487 1485 1484 1483 1482 1480 1478 1475 1474 1472 1470 1468 1467 1465 1463 1462 1459 1456 1452 1448 1445 1440 1434 1431 1429 1425 1420 1416 1413 1407 1403 1398 1394 1391 1387 1381 1378 1375
1397 1398 1400 1404 1409 1414 1418 1421 1424 1426 1430 1433 1435 1437 1440 1444 1447 1450 1452 1456 1459 1462 1465 1467 1470 1474 1476 1478 1480 1482 1483 1485 1486 1487 1488 1489 1488 1489 1489 1490 1490 1490 1490 1490 1489 1488 1487 1485 1483 1481 1481 1480 1478 1475 1473 1471 1468 1466 1464 1462 1461 1459 1459 1456 1453 1449 1446 1442 1438 1433 1429 1425 1421 1417 1414 1411 1406 1402 1398 1394 1392 1387 1380 1374 1370
1393 1394 1396 1398 1402 1408 1413 1418 1421 1424 1426 1428 1430 1434 1437 1440 1443 1446 1449 1452 1455 1458 1461 1465 1468 1471 1474 1476 1478 1479 1481 1482 1484 1484 1486 1486 1486 1486 1487 1487 1487 1488 1488 1488 1487 1486 1485 1483 1481 1479 1478 1477 1475 1473 1471 1468 1466 1463 1460 1457 1455 1454 1453 1451 1449 1446 1443 1439 1435 1431 1427 1423 1420 1416 1414 1411 1407 1402 1396 1392 1389 1385 1379 1372 1366
1389 1391 1394 1398 1401 1404 1409 1414 1417 1420 1421 1423 1426 1430 1434 1437 1440 1443 1447 1450 1453 1456 1459 1462 1465 1468 1471 1473 1475 1477 1478 1480 1481 1482 1483 1483 1483 1483 1484 1484 1485 1485 1485 1485 1484 1484 1483 1481 1479 1477 1476 1475 1473 1471 1468 1465 1462 1459 1456 1452 1449 1448 1447 1444 1442 1439 1436 1434 1431 1428 1424 1421 1418 1414 1412 1408 1405 1401 1395 1390 1387 1383 1377 1371 1365
1386 1389 1391 1395 1397 1400 1405 1409 1412 1415 1417 1420 1424 1427 1430 1434 1437 1441 1445 1448 1451 1454 1457 1460 1462 1465 1468 1470 1472 1474 1475 1477 1478 1479 1480 1480 1480 1481 1481 1482 1482 1482 1482 1482 1482 1481 1480 1479 1477 1475 1474 1472 1470 1468 1466 1463 1459 1456 1453 1449 1445 1443 1441 1439 1435 1432 1429 1427 1425 1422 1420 1418 1414 1411 1408 1404 1401 1397 1393 1388 1384 1379 1374 1369 1366
1383 1385 1387 1389 1392 1396 1400 1404 1406 1410 1413 1418 1422 1425 1428 1431 1434 1438 1442 1446 1449 1452 1455 1457 1460 1462 1465 1467 1469 1471 1472 1474 1475 1476 1477 1478 1478 1478 1478 1479 1479 1479 1479 1479 1479 1479 1478 1477 1475 1473 1471 1469 1467 1465 1463 1460 1456 1453 1450 1447 1443 1440 1437 1435 1432 1428 1424 1421 1419 1417 1415 1412 1409 1406 1402 1399 1395 1392 1389 1385 1380 1377 1372 1367 1364
1380 1381 1383 1385 1388 1391 1395 1399 1402 1406 1411 1416 1420 1423 1425 1428 1432 1436 1439 1443 1446 1449 1452 1454 1457 1459 1462 1464 1466 1468 1470 1471 1473 1474 1475 1475 1475 1476 1476 1477 1477 1477 1476 1476 1476 1476 1475 1474 1472 1471 1469 1466 1464 1462 1460 1457 1454 1451 1448 1445 1441 1438 1434 1431 1428 1425 1421 1418 1415 1413 1410 1407 1403 1401 1397 1394 1391 1387 1384 1381 1377 1374 1371 1367 1362
1376 1378 1379 1381 1384 1387 1391 1394 1398 1403 1408 1412 1416 1418 1422 1426 1430 1434 1437 1440 1443 1446 1449 1451 1454 1456 1459 1461 1463 1465 1467 1469 1470 1471 1472 1472 1473 1473 1474 1475 1475 1474 1473 1473 1473 1473 1472 1471 1470 1469 1467 1464 1462 1459 1457 1455 1452 1449 1447 1444 1440 1437 1433 1429 1425 1421 1418 1415 1412 1409 1406 1402 1399 1396 1393 1390 1387 1384 1381 1379 1376 1372 1369 1366 1362
1372 1373 1375 1377 1380 1383 1387 1391 1395 1400 1404 1408 1412 1415 1419 1423 1427 1431 1434 1437 1440 1443 1446 1448 1451 1454 1456 1458 1460 1462 1464 1466 1467 1468 1469 1470 1470 1471 1471 1472 1472 1471 1470 1470 1470 1470 1469 1468 1467 1466 1464 1462 1459 1457 1455 1453 1450 1447 1445 1442 1439 1435 1431 1427 1423 1419 1415 1412 1408 1405 1402 1399 1396 1392 1390 1386 1383 1380 1378 1375 1373 1370 1366 1363 1360
1368 1368 1370 1373 1375 1379 1383 1387 1391 1396 1400 1405 1408 1411 1415 1420 1424 1427 1431 1434 1437 1440 1442 1445 1448 1450 1452 1454 1457 1459 1461 1463 1464 1465 1466 1467 1468 1468 1469 1469 1469 1468 1467 1467 1467 1467 1466 1465 1464 1463 1461 1459 1456 1454 1453 1451 1449 1446 1443 1440 1437 1433 1429 1424 1420 1416 1412 1408 1405 1402 1399 1397 1393 1389 1386 1383 1379 1377 1374 1372 1369 1366 1362 1358 1355
1363 1364 1366 1368 1372 1375 1379 1383 1387 1392 1397 1400 1403 1406 1410 1415 1420 1423 1427 1430 1433 1436 1439 1442 1445 1447 1449 1451 1454 1456 1458 1460 1462 1463 1464 1464 1465 1465 1466 1466 1466 1466 1465 1464 1464 1464 1463 1462 1461 1460 1458 1456 1454 1452 1451 1449 1447 1444 1441 1437 1434 1430 1426 1422 1418 1413 1409 1405 1402 1399 1396 1393 1390 1387 1383 1380 1377 1374 1371 1367 1364 1361 1357 1353 1350
1360 1361 1362 1365 1369 1372 1375 1379 1383 1388 1392 1396 1399 1403 1407 1411 1416 1420 1424 1427 1430 1433 1436 1438 1441 1444 1446 1448 1451 1453 1455 1457 1459 1460 1461 1461 1462 1463 1463 1463 1463 1463 1462 1462 1461 1461 1460 1459 1458 1457 1455 1453 1451 1449 1447 1446 1444 1441 1438 1434 1431 1427 1423 1419 1415 1410 1406 1403 1399 1396 1393 1390 1387 1384 1381 1377 1375 1371 1367 1363 1359 1356 1353 1348 1344
1357 1358 1360 1362 1365 1368 1371 1375 1379 1383 1387 1392 1396 1401 1405 1409 1413 1416 1419 1423 1426 1429 1432 1434 1437 1440 1443 1446 1448 1450 1452 1454 1456 1458 1458 1459 1459 1460 1460 1461 1461 1460 1460 1459 1458 1458 1457 1456 1455 1454 1452 1450 1449 1447 1445 1443 1440 1437 1434 1431 1427 1424 1420 1416 1412 1408 1404 1401 1397 1394 1391 1387 1384 1381 1378 1374 1372 1369 1365 1360 1355 1352 1349 1345 1340
1353 1355 1357 1359 1362 1364 1367 1371 1375 1379 1383 1388 1392 1396 1401 1406 1409 1412 1416 1420 1423 1425 1428 1431 1434 1437 1440 1443 1446 1448 1449 1450 1452 1455 1456 1457 1457 1457 1458 1458 1458 1458 1457 1457 1456 1455 1454 1453 1452 1451 1450 1447 1446 1444 1442 1439 1436 1433 1430 1427 1424 1421 1417 1413 1410 1407 1403 1399 1395 1391 1388 1384 1381 1378 1374 1371 1368 1365 1362 1358 1353 1349 1346 1342 1337
1351 1352 1354 1355 1357 1360 1364 1367 1371 1375 1380 1384 1389 1394 1399 1403 1407 1410 1415 1419 1421 1424 1427 1429 1432 1435 1439 1442 1443 1445 1446 1447 1450 1452 1454 1454 1454 1455 1455 1455 1455 1455 1455 1454 1453 1452 1451 1450 1449 1448 1447 1444 1442 1440 1438 1435 1432 1430 1427 1425 1421 1418 1415 1411 1407 1404 1400 1397 1393 1389 1385 1381 1378 1375 1371 1367 1364 1362 1359 1355 1351 1347 1343 1339 1335
1348 1348 1349 1351 1352 1355 1359 1362 1366 1370 1376 1381 1387 1393 1399 1403 1406 1410 1414 1416 1419 1423 1426 1428 1431 1434 1437 1439 1441 1443 1444 1445 1447 1449 1450 1451 1451 1452 1452 1453 1453 1453 1452 1451 1450 1449 1449 1448 1447 1445 1443 1441 1438 1436 1434 1431 1428 1426 1423 1421 1418 1415 1412 1408 1404 1401 1397 1394 1390 1386 1382 1378 1375 1371 1368 1364 1361 1358 1356 1352 1349 1345 1341 1336 1332
1344 1344 1345 1347 1348 1351 1354 1358 1361 1366 1372 1378 1384 1389 1394 1398 1403 1407 1410 1413 1416 1420 1423 1425 1428 1431 1434 1436 1438 1440 1442 1443 1444 1445 1446 1447 1448 1448 1449 1450 1450 1450 1449 1448 1447 1446 1446 1444 1443 1442 1440 1438 1435 1433 1431 1428 1425 1422 1419 1417 1415 1412 1409 1405 1401 1398 1394 1390 1387 1383 1380 1376 1372 1368 1365 1361 1357 1355 1352 1349 1346 1342 1338 1334 1330
1340 1341 1343 1345 1347 1349 1351 1354 1358 1363 1368 1374 1380 1385 1389 1393 1398 1402 1405 1408 1412 1416 1419 1422 1425 1427 1430 1432 1435 1437 1439 1440 1441 1442 1443 1444 1445 1446 1446 1447 1447 1447 1446 1445 1444 1444 1443 1441 1440 1439 1437 1435 1433 1431 1428 1425 1423 1420 1416 1413 1411 1409 1405 1401 1398 1395 1391 1387 1384 1380 1377 1373 1369 1365 1362 1359 1355 1351 1349 1346 1343 1339 1336 1332 1329
1338 1339 1341 1342 1345 1346 1348 1351 1354 1358 1362 1368 1375 1380 1384 1389 1393 1397 1400 1404 1408 1412 1415 1418 1421 1424 1426 1429 1431 1434 1436 1438 1438 1439 1440 1441 1442 1443 1444 1444 1444 1444 1443 1442 1441 1441 1440 1439 1437 1436 1434 1432 1430 1428 1426 1423 1420 1417 1414 1411 1408 1405 1402 1399 1395 1392 1389 1385 1381 1378 1374 1370 1367 1363 1360 1357 1353 1350 1346 1343 1340 1337 1333 1330 1326
1335 1336 1338 1339 1341 1343 1345 1347 1350 1353 1359 1366 1372 1376 1381 1387 1391 1395 1397 1400 1403 1407 1411 1414 1417 1420 1423 1425 1428 1431 1433 1434 1435 1436 1437 1438 1439 1440 1440 1441 1441 1441 1441 1440 1439 1438 1438 1436 1435 1434 1432 1430 1428 1425 1423 1420 1418 1415 1412 1409 1406 1402 1399 1396 1392 1389 1386 1382 1379 1375 1372 1368 1365 1361 1357 1354 1351 1348 1344 1341 1338 1335 1332 1328 1324
1332 1333 1335 1336 1338 1340 1343 1345 1348 1352 1357 1363 1369 1374 1380 1385 1389 1391 1394 1397 1400 1404 1408 1410 1413 1417 1420 1422 1425 1428 1430 1431 1432 1434 1435 1435 1436 1437 1437 1437 1439 1439 1438 1438 1437 1436 1435 1434 1433 1431 1430 1427 1425 1423 1420 1417 1415 1412 1410 1406 1403 1399 1396 1393 1390 1386 1383 1380 1376 1373 1370 1366 1363 1359 1355 1352 1349 1346 1342 1340 1337 1333 1330 1327 1323
1329 1330 1332 1333 1335 1337 1340 1343 1347 1352 1358 1363 1368 1374 1378 1382 1385 1388 1391 1395 1399 1402 1406 1409 1412 1415 1417 1420 1422 1425 1426 1428 1429 1431 1432 1432 1433 1433 1434 1435 1436 1436 1436 1436 1435 1434 1433 1431 1430 1428 1426 1424 1422 1420 1418 1415 1413 1410 1407 1403 1400 1396 1393 1390 1387 1384 1381 1377 1374 1371 1367 1364 1361 1357 1353 1350 1347 1344 1341 1338 1335 1332 1329 1326 1322
1326 1327 1328 1331 1333 1335 1338 1342 1348 1354 1359 1363 1368 1372 1375 1379 1382 1385 1389 1392 1395 1399 1402 1405 1408 1411 1413 1416 1419 1421 1423 1425 1426 1427 1428 1429 1429 1430 1431 1432 1433 1433 1433 1433 1433 1431 1430 1429 1427 1425 1424 1422 1420 1418 1416 1413 1410 1407 1404 1401 1398 1394 1391 1388 1385 1382 1378 1375 1371 1368 1365 1361 1358 1355 1352 1348 1345 1342 1339 1336 1333 1330 1328 1325 1321
1323 1324 1326 1329 1331 1333 1336 1341 1347 1354 1358 1362 1365 1369 1372 1375 1379 1382 1385 1389 1392 1395 1398 1401 1403 1406 1409 1412 1416 1418 1420 1422 1423 1424 1425 1426 1427 1428 1429 1430 1430 1430 1430 1431 1430 1429 1427 1426 1425 1424 1422 1420 1418 1416 1413 1411 1408 1405 1402 1398 1396 1393 1390 1386 1383 1380 1376 1372 1369 1366 1362 1359 1356 1353 1350 1346 1343 1340 1337 1335 1332 1328 1325 1322 1319
1321 1322 1324 1327 1329 1332 1335 1339 1344 1349 1354 1358 1362 1366 1369 1372 1375 1379 1382 1385 1388 1391 1394 1397 1399 1402 1406 1409 1413 1415 1416 1418 1419 1420 1422 1423 1424 1426 1426 1427 1428 1428 1428 1428 1427 1426 1425 1424 1423 1421 1420 1418 1415 1413 1410 1408 1405 1402 1399 1396 1393 1390 1387 1384 1380 1377 1373 1370 1367 1363 1360 1357 1354 1351 1348 1345 1342 1339 1336 1333 1330 1327 1323 1320 1318
1318 1319 1321 1324 1327 1330 1334 1338 1341 1345 1349 1354 1358 1362 1365 1369 1372 1376 1379 1382 1385 1388 1391 1393 1396 1399 1402 1406 1409 1411 1413 1415 1416 1418 1419 1420 1422 1423 1424 1424 1425 1425 1425 1425 1424 1423 1422 1421 1420 1419 1417 1415 1413 1411 1408 1405 1403 1400 1397 1394 1391 1388 1385 1382 1378 1374 1371 1368 1365 1361 1358 1355 1351 1349 1346 1343 1340 1337 1335 1332 1329 1326 1323 1320 1317
1316 1317 1319 1321 1324 1328 1332 1335 1338 1342 1346 1351 1355 1359 1363 1367 1370 1373 1377 1380 1382 1385 1388 1390 1393 1396 1399 1402 1406 1409 1411 1412 1414 1415 1416 1417 1419 1420 1421 1422 1423 1423 1423 1422 1422 1420 1419 1418 1417 1416 1414 1413 1411 1408 1406 1403 1400 1398 1395 1392 1389 1386 1383 1380 1376 1372 1369 1366 1362 1359 1356 1353 1350 1347 1344 1341 1339 1336 1333 1330 1327 1325 1322 1319 1316
1314 1315 1317 1319 1322 1325 1328 1332 1336 1340 1345 1348 1352 1357 1361 1365 1368 1371 1374 1377 1380 1383 1386 1388 1390 1393 1396 1399 1403 1406 1408 1409 1410 1412 1413 1414 1416 1417 1419 1420 1420 1420 1420 1419 1419 1418 1417 1416 1415 1414 1412 1410 1408 1406 1403 1401 1398 1395 1392 1390 1387 1384 1380 1377 1374 1370 1367 1363 1360 1357 1354 1351 1348 1345 1342 1340 1337 1334 1332 1329 1326 1324 1321 1318 1316
1311 1313 1315 1317 1319 1322 1326 1329 1334 1338 1342 1345 1350 1354 1359 1362 1366 1369 1372 1375 1378 1380 1383 1386 1388 1390 1393 1397 1400 1402 1404 1405 1407 1408 1410 1412 1413 1415 1416 1417 1417 1417 1417 1417 1416 1415 1414 1414 1413 1412 1410 1408 1406 1404 1401 1398 1396 1393 1390 1387 1385 1381 1378 1375 1371 1368 1364 1361 1358 1355 1352 1349 1346 1344 1341 1338 1335 1333 1331 1328 1325 1323 1321 1318 1315
1309 1311 1313 1316 1318 1321 1324 1328 1332 1336 1340 1344 1348 1352 1355 1359 1363 1366 1370 1373 1375 1378 1381 1383 1385 1387 1391 1393 1396 1398 1400 1402 1404 1406 1407 1409 1411 1412 1414 1414 1414 1415 1415 1414 1414 1413 1412 1411 1410 1409 1408 1406 1404 1401 1399 1397 1394 1391 1388 1385 1382 1379 1376 1373 1369 1366 1362 1359 1355 1353 1350 1348 1345 1342 1339 1337 1334 1332 1330 1327 1325 1322 1320 1318 1315
1307 1308 1311 1313 1316 1319 1322 1325 1329 1333 1338 1342 1345 1348 1352 1356 1360 1363 1367 1369 1372 1375 1378 1380 1382 1385 1388 1390 1393 1395 1398 1400 1401 1403 1405 1406 1408 1410 1411 1411 1412 1412 1412 1412 1411 1410 1410 1409 1408 1407 1405 1404 1402 1399 1397 1395 1392 1389 1386 1383 1380 1377 1374 1370 1367 1364 1360 1357 1354 1351 1349 1346 1343 1341 1338 1336 1334 1331 1329 1327 1324 1322 1320 1318 1315
1304 1305 1308 1311 1313 1316 1319 1323 1327 1331 1335 1338 1341 1345 1350 1354 1357 1361 1364 1367 1369 1372 1375 1377 1380 1382 1385 1388 1390 1393 1395 1397 1399 1400 1402 1404 1406 1407 1408 1409 1409 1410 1410 1409 1409 1408 1407 1407 1405 1404 1403 1401 1399 1397 1395 1393 1390 1388 1385 1382 1379 1375 1372 1369 1365 1362 1359 1356 1353 1350 1347 1345 1342 1340 1337 1335 1333 1331 1329 1327 1325 1323 1320 1318 1316
1302 1303 1306 1309 1311 1314 1317 1321 1324 1328 1331 1335 1339 1343 1347 1351 1355 1358 1361 1364 1367 1370 1372 1375 1377 1379 1382 1385 1388 1390 1393 1395 1396 1398 1400 1402 1404 1405 1406 1406 1407 1407 1407 1407 1406 1406 1405 1404 1403 1402 1400 1399 1397 1395 1393 1391 1389 1386 1383 1380 1377 1374 1371 1367 1364 1361 1358 1355 1352 1349 1346 1344 1341 1339 1337 1334 1332 1331 1329 1327 1325 1323 1321 1319 1316
1299 1302 1304 1307 1309 1312 1315 1318 1321 1325 1329 1333 1337 1341 1345 1349 1353 1356 1359 1361 1364 1367 1370 1372 1375 1377 1380 1383 1386 1388 1391 1392 1394 1396 1398 1400 1401 1402 1403 1404 1404 1404 1404 1404 1404 1403 1403 1402 1401 1400 1398 1396 1395 1393 1391 1389 1387 1384 1381 1378 1375 1372 1369 1366 1362 1359 1356 1354 1351 1348 1345 1343 1340 1338 1336 1334 1332 1330 1328 1327 1325 1323 1321 1320 1317
1298 1300 1302 1304 1307 1309 1312 1315 1319 1323 1327 1331 1335 1339 1343 1347 1350 1354 1356 1359 1362 1365 1368 1370 1373 1375 1378 1381 1383 1386 1388 1390 1392 1394 1396 1397 1399 1400 1401 1401 1402 1402 1402 1402 1401 1401 1400 1400 1399 1397 1396 1394 1393 1391 1389 1387 1385 1382 1379 1376 1373 1370 1367 1364 1361 1358 1355 1352 1350 1347 1345 1342 1340 1338 1336 1334 1332 1330 1329 1327 1325 1324 1322 1320 1318
1296 1298 1300 1302 1305 1308 1311 1314 1318 1321 1326 1330 1333 1337 1341 1345 1348 1351 1354 1357 1360 1363 1366 1368 1371 1374 1376 1379 1381 1384 1386 1388 1390 1392 1394 1395 1396 1397 1398 1399 1399 1399 1399 1399 1399 1399 1398 1397 1396 1395 1394 1393 1391 1389 1388 1385 1383 1380 1378 1374 1371 1368 1365 1362 1359 1357 1354 1351 1349 1347 1344 1342 1340 1338 1336 1334 1332 1331 1329 1328 1326 1325 1323 1321 1319
1295 1297 1299 1301 1303 1306 1309 1312 1316 1320 1324 1327 1331 1335 1339 1343 1346 1349 1352 1355 1358 1361 1364 1367 1370 1372 1375 1377 1380 1382 1384 1386 1388 1390 1391 1393 1394 1395 1396 1397 1397 1397 1397 1397 1397 1397 1396 1395 1394 1393 1392 1391 1389 1388 1386 1384 1381 1378 1376 1373 1370 1367 1364 1361 1358 1356 1353 1350 1348 1346 1344 1342 1340 1338 1336 1335 1333 1331 1330 1328 1327 1325 1324 1322 1320